Location: Recife
(8.0585°S, 34.8848°W)
Time: 10:55:32
(UTC-03:00)

Courier 1B Rocket - Pass Details

Date: 14 April 2026
Orbit: 920 x 1201 km, 28.2° (Epoch: 13 May)

Event Time Altitude Azimuth Distance (km) Brightness Sun altitude
Rises 15:17:41 0° 248° (WSW) 4,097 9.0 28.2°
Reaches altitude 10° 15:20:36 10° 251° (WSW) 3,132 8.7 27.5°
Maximum altitude 15:28:18 60° 329° (NNW) 1,332 6.6 25.7°
Drops below altitude 10° 15:35:42 10° 48° (NE) 3,018 7.3 23.9°
Sets 15:38:28 0° 51° (NE) 3,939 7.8 23.2°
